Cagliari, Italy

12:28 AM CET on January 20, 2018 (GMT +0100)
Elmas Mil

Weather History for LIEE - December, 2012

Change the Weather History Date:

Saturday, December 15, 2012

  Actual Average Record
Temperature  
Mean Temperature 56 °F -  
Max Temperature 65 °F 58 °F 66 °F (2002)
Min Temperature 48 °F 43 °F 39 °F (1997)
Degree Days  
Heating Degree Days 8    
Growing Degree Days 6 (Base 50)    
Moisture  
Dew Point 50 °F    
Average Humidity 75    
Maximum Humidity 88    
Minimum Humidity 60    
Precipitation  
Precipitation 0.00 in 0.07 in - ()
Sea Level Pressure  
Sea Level Pressure 30.08 in    
Wind  
Wind Speed 4 mph ()    
Max Wind Speed 17 mph    
Max Gust Speed -    
Visibility 6.3 miles    
Events      
Averages and records for this station are not official NWS values.
T = Trace of Precipitation, MM = Missing Value Source: Averaged Metar Reports

Daily Weather History Graph

Daily Weather History Graph

Search for Another Location

Airport or City:

Trip Planner

Search our weather history database for the weather conditions in past years. The results will help you decide how hot, cold, wet, or windy it might be!

Date:

Astronomy

Dec. 15, 2012 Rise Set
Actual Time 7:36 AM CET 5:01 PM CET
Civil Twilight 7:06 AM CET 5:31 PM CET
Nautical Twilight 6:32 AM CET 6:05 PM CET
Astronomical Twilight 6:00 AM CET 6:38 PM CET
Moon 9:17 AM CET (12/15) 7:45 PM CET (12/15)
Length of Visible Light 10h 25m
Length of Day
9h 25m
Waxing Crescent, 7% of the Moon is Illuminated
Dec 15
Waxing Crescent
Dec 20
First Quarter
Dec 28
Full
Jan 5
Last Quarter
Jan 11
New

Hourly Weather History & Observations

Time (CET) Temp. Dew Point Humidity Pressure Visibility Wind Dir Wind Speed Gust Speed Precip Events Conditions
12:15 AM 51.8 °F 44.6 °F 76% 30.09 in 6.2 mi East 2.3 mph - N/A   Scattered Clouds
12:45 AM 50.0 °F 42.8 °F 76% 30.09 in 6.2 mi NE 4.6 mph - N/A   Scattered Clouds
12:55 AM 50.0 °F 42.8 °F 76% 30.09 in 6.2 mi NE 4.6 mph - N/A   Scattered Clouds
1:15 AM 50.0 °F 42.8 °F 76% 30.09 in 6.2 mi NE 4.6 mph - N/A   Scattered Clouds
1:45 AM 50.0 °F 44.6 °F 82% 30.09 in 6.2 mi East 2.3 mph - N/A   Scattered Clouds
1:55 AM 50.0 °F 44.6 °F 82% 30.09 in 6.2 mi East 2.3 mph - N/A   Scattered Clouds
2:15 AM 50.0 °F 44.6 °F 82% 30.09 in 6.2 mi NE 3.5 mph - N/A   Scattered Clouds
2:45 AM 51.8 °F 44.6 °F 76% 30.09 in 6.2 mi NE 2.3 mph - N/A   Scattered Clouds
2:55 AM 51.8 °F 44.6 °F 76% 30.09 in 6.2 mi NE 2.3 mph - N/A   Scattered Clouds
3:15 AM 51.8 °F 44.6 °F 76% 30.09 in 6.2 mi NE 2.3 mph - N/A   Scattered Clouds
3:45 AM 51.8 °F 44.6 °F 76% 30.09 in 6.2 mi ENE 3.5 mph - N/A   Scattered Clouds
3:55 AM 51.8 °F 44.6 °F 76% 30.09 in 6.2 mi ENE 3.5 mph - N/A   Scattered Clouds
4:00 AM 51 °F 44 °F 71% 30.10 in 6 mi ENE 3.5 mph - -   Partly Cloudy
4:15 AM 51.8 °F 44.6 °F 76% 30.09 in 6.2 mi East 2.3 mph - N/A   Scattered Clouds
4:45 AM 51.8 °F 44.6 °F 76% 30.06 in 6.2 mi NNE 2.3 mph - N/A   Scattered Clouds
4:55 AM 51.8 °F 44.6 °F 76% 30.06 in 6.2 mi NNE 2.3 mph - N/A   Scattered Clouds
5:15 AM 51.8 °F 44.6 °F 76% 30.06 in 6.2 mi NNE 2.3 mph - N/A   Scattered Clouds
5:45 AM 50.0 °F 44.6 °F 82% 30.09 in 6.2 mi Calm Calm - N/A   Scattered Clouds
5:55 AM 50.0 °F 44.6 °F 82% 30.09 in 6.2 mi Calm Calm - N/A   Scattered Clouds
6:15 AM 50.0 °F 44.6 °F 82% 30.09 in 6.2 mi Calm Calm - N/A   Scattered Clouds
6:45 AM 50.0 °F 41.0 °F 71% 30.09 in 6.2 mi Calm Calm - N/A   Scattered Clouds
6:55 AM 50.0 °F 41.0 °F 71% 30.09 in 6.2 mi Calm Calm - N/A   Scattered Clouds
7:00 AM 50 °F 41 °F 61% 30.11 in 6 mi Calm Calm - -   Partly Cloudy
7:15 AM 51.8 °F 41.0 °F 67% 30.09 in 6.2 mi NE 3.5 mph - N/A   Scattered Clouds
7:45 AM 51.8 °F 42.8 °F 71% 30.09 in 6.2 mi NE 3.5 mph - N/A   Mostly Cloudy
7:55 AM 51.8 °F 42.8 °F 71% 30.09 in 6.2 mi NE 3.5 mph - N/A   Mostly Cloudy
8:15 AM 53.6 °F 44.6 °F 72% 30.09 in 6.2 mi ENE 3.5 mph - N/A   Mostly Cloudy
8:45 AM 53.6 °F 46.4 °F 77% 30.09 in 6.2 mi SE 4.6 mph - N/A   Mostly Cloudy
8:55 AM 53.6 °F 46.4 °F 77% 30.09 in 6.2 mi SE 4.6 mph - N/A   Mostly Cloudy
9:15 AM 55.4 °F 51.8 °F 88% 30.09 in 6.2 mi South 9.2 mph - N/A   Scattered Clouds
9:45 AM 57.2 °F 53.6 °F 88% 30.09 in 6.2 mi South 10.4 mph - N/A   Scattered Clouds
9:55 AM 57.2 °F 53.6 °F 88% 30.09 in 6.2 mi South 10.4 mph - N/A   Scattered Clouds
10:00 AM 57 °F 54 °F 85% 30.12 in 7 mi South 10.4 mph - -   Partly Cloudy
10:15 AM 59.0 °F 53.6 °F 82% 30.09 in 6.2 mi SSE 11.5 mph - N/A   Scattered Clouds
10:45 AM 60.8 °F 53.6 °F 77% 30.09 in 6.2 mi SE 8.1 mph - N/A   Scattered Clouds
10:55 AM 60.8 °F 53.6 °F 77% 30.09 in 6.2 mi SE 8.1 mph - N/A   Scattered Clouds
11:15 AM 60.8 °F 48.2 °F 63% 30.09 in 6.2 mi SSE 5.8 mph - N/A   Scattered Clouds
11:45 AM 62.6 °F 53.6 °F 72% 30.09 in 6.2 mi South 5.8 mph - N/A   Scattered Clouds
11:55 AM 62.6 °F 53.6 °F 72% 30.09 in 6.2 mi South 5.8 mph - N/A   Scattered Clouds
12:15 PM 62.6 °F 51.8 °F 68% 30.09 in 6.2 mi NW 3.5 mph - N/A   Scattered Clouds
12:45 PM 64.4 °F 53.6 °F 68% 30.06 in 6.2 mi West 11.5 mph - N/A   Partly Cloudy
12:55 PM 64.4 °F 53.6 °F 68% 30.06 in 6.2 mi West 11.5 mph - N/A   Partly Cloudy
1:00 PM 64 °F 54 °F 63% 30.09 in 12 mi West 11.5 mph - -   Partly Cloudy
1:15 PM 66.2 °F 51.8 °F 60% 30.06 in 6.2 mi West 12.7 mph - N/A   Scattered Clouds
2:15 PM 64.4 °F 51.8 °F 64% 30.04 in 6.2 mi West 13.8 mph - N/A   Partly Cloudy
2:45 PM 62.6 °F 53.6 °F 72% 30.04 in 6.2 mi West 12.7 mph - N/A   Partly Cloudy
2:55 PM 62.6 °F 53.6 °F 72% 30.04 in 6.2 mi West 12.7 mph - N/A   Partly Cloudy
3:15 PM 62.6 °F 51.8 °F 68% 30.04 in 6.2 mi West 12.7 mph - N/A   Scattered Clouds
3:45 PM 62.6 °F 51.8 °F 68% 30.04 in 6.2 mi West 11.5 mph - N/A   Partly Cloudy
3:55 PM 62.6 °F 51.8 °F 68% 30.04 in 6.2 mi West 11.5 mph - N/A   Partly Cloudy
4:00 PM 63 °F 53 °F 60% 30.06 in 12 mi West 11.5 mph - -   Partly Cloudy
4:15 PM 62.6 °F 51.8 °F 68% 30.04 in 6.2 mi West 8.1 mph - N/A   Scattered Clouds
4:45 PM 62.6 °F 51.8 °F 68% 30.06 in 6.2 mi West 17.3 mph - N/A   Scattered Clouds
4:55 PM 62.6 °F 51.8 °F 68% 30.06 in 6.2 mi West 17.3 mph - N/A   Scattered Clouds
5:15 PM 62.6 °F 51.8 °F 68% 30.06 in 6.2 mi West 11.5 mph - N/A   Scattered Clouds
5:45 PM 62.6 °F 53.6 °F 72% 30.06 in 6.2 mi West 6.9 mph - N/A   Scattered Clouds
5:55 PM 62.6 °F 53.6 °F 72% 30.06 in 6.2 mi West 6.9 mph - N/A   Scattered Clouds
6:15 PM 60.8 °F 53.6 °F 77% 30.06 in 6.2 mi WNW 1.2 mph - N/A   Mostly Cloudy
6:45 PM 60.8 °F 53.6 °F 77% 30.06 in 6.2 mi Calm Calm - N/A   Mostly Cloudy
6:55 PM 60.8 °F 53.6 °F 77% 30.06 in 6.2 mi Calm Calm - N/A   Mostly Cloudy
7:00 PM 62 °F 53 °F 65% 30.09 in 6 mi Calm Calm - -   Mostly Cloudy
7:15 PM 60.8 °F 53.6 °F 77% 30.09 in 6.2 mi Calm Calm - N/A   Mostly Cloudy
7:45 PM 62.6 °F 53.6 °F 72% 30.09 in 6.2 mi NW 1.2 mph - N/A   Mostly Cloudy
7:55 PM 62.6 °F 53.6 °F 72% 30.09 in 6.2 mi NW 1.2 mph - N/A   Mostly Cloudy
8:15 PM 62.6 °F 53.6 °F 72% 30.09 in 6.2 mi West 2.3 mph - N/A   Mostly Cloudy
8:45 PM 60.8 °F 53.6 °F 77% 30.09 in 6.2 mi NW 2.3 mph - N/A   Mostly Cloudy
8:55 PM 60.8 °F 53.6 °F 77% 30.09 in 6.2 mi NW 2.3 mph - N/A   Mostly Cloudy
9:15 PM 60.8 °F 55.4 °F 82% 30.06 in 6.2 mi West 6.9 mph - N/A   Scattered Clouds
9:45 PM 60.8 °F 55.4 °F 82% 30.09 in 6.2 mi WNW 4.6 mph - N/A   Scattered Clouds
9:55 PM 60.8 °F 55.4 °F 82% 30.09 in 6.2 mi WNW 4.6 mph - N/A   Scattered Clouds
10:00 PM 61 °F 56 °F 77% 30.10 in 6 mi WNW 4.6 mph - -   Mostly Cloudy
10:15 PM 60.8 °F 55.4 °F 82% 30.09 in 6.2 mi WNW 4.6 mph - N/A   Scattered Clouds
10:45 PM 60.8 °F 55.4 °F 82% 30.09 in 5.6 mi NNW 3.5 mph - N/A   Scattered Clouds
10:55 PM 60.8 °F 55.4 °F 82% 30.09 in 5.6 mi NNW 3.5 mph - N/A   Scattered Clouds
11:15 PM 60.8 °F 55.4 °F 82% 30.09 in 5.0 mi NNW 4.6 mph - N/A   Scattered Clouds
11:45 PM 60.8 °F 57.2 °F 88% 30.09 in 5.0 mi West 6.9 mph - N/A   Scattered Clouds
11:55 PM 60.8 °F 57.2 °F 88% 30.09 in 5.0 mi West 6.9 mph - N/A   Scattered Clouds